[Date Prev][Date Next][Thread Prev][Thread Next][Date Index][Thread Index]

[jamsat-news:1455] jas2info #219



========================   最新情報   ==============================

        Last updated :fri.30MAR2001  20:20 (JST) #219
        
====================================================================
   
  1)アマチュア通信衛星情報、FOシリーズの軌道要素、テレメトリ、QSOの
   状況等をまとめてみました.
   
   FO−29の2001年3月30日(金)の10:31(JST)のパスでは
  JARLのホームページのとうりアナログ運用でした。観測したテレメトリーと
  分析結果を掲載しておきます.

AS22795C1   30MAR2001
10:34-10:47(JAS)
Freq.435.801-.789MHz

HI HI AE C7 88 55 00 D4 4F A7 09 42 4B 8F 82 60 91 8F B0 8B AE A9 B3 B4 AE 
HI HI AE C7 88 55 00 D4 4F A7 09 42 4A 8F 81 60 91 8F B0 B7 AD A8 B3 B4 AE 
HI HI AE C7 88 55 00 D4 4F A7 09 42 4A 8E 81 5F 91 90 B0 88 AD A8 B3 B3 AE 
HI HI AE C7 88 55 00 D4 4F A7 09 42 49 8D 81 60 92 90 B0 7A AD A8 B3 B3 AE 
HI HI AE C7 88 55 00 D4 4F A7 09 42 48 8D 81 60 92 90 B0 66 AD A8 B3 B3 AE 
HI HI AE C7 88 55 00 D4 4F A7 09 42 48 8D 80 60 92 90 B0 7D AD A8 B3 B3 AE 
HI HI AE C7 88 55 00 D4 4F A7 09 42 48 8D 80 60 92 90 B0 7D AC A8 B2 B3 AE 
HI HI AE C7 88 55 00 D4 4F A7 09 42 49 8C 80 60 92 90 B0 74 AC A8 B3 B3 AE 
HI HI AE C7 88 55 00 D4 4F A7 09 42 4A 8C 7F 60 92 90 B0 83 AC A8 B2 B3 AE 
HI HI AE C7 88 55 00 D4 4F A7 09 42 4C 8B 80 60 92 90 B0 7E AC A7 B2 B3 AE 
HI HI AE C7 88 55 00 D4 4F A7 09 42 4E 8A 80 60 92 90 B0 81 AB A7 B2 B3 AE 
HI HI AE C7 88 55 00 D4 4F A7 09 42 51 88 81 60 92 91 B0 7D AB A7 B2 B3 AE 
HI HI AE C7 88 55 00 D4 4F A7 09 42 54 86 81 60 92 91 B0 7F AB A7 B2 B3 AE 
HI HI AE C7 88 55 00 D4 4F A7 09 42 57 82 82 60 92 91 B0 6B AB A7 B2 B2 AE 
HI HI AE C7 88 55 0G D4 4F A7 09 42 5A 80 82 60 92 91 B0 6C AB A7 B2 B2 AE   
 
 ------------------------ FO-29の軌道要素 ------------------------------        
 
  ■ 軌道要素1:「jamsat−keps:1088」より         
          SB KEPS @ AMSAT  $ORB01088.N
          2Line Orbital Elements 01088.AMSAT

HR AMSAT ORBITAL ELEMENTS FOR AMATEUR SATELLITES IN NASA FORMAT
FROM WA5QGD FORT WORTH,TX March 29, 2001
SEND SUBSCRIBE/UNSUBSCRIBE TO majordomo@amsat.org ONLY
BID: ORB01088.N

 DECODE 2-LINE ELSETS WITH THE FOLLOWING KEY:
 1 AAAAAU 00  0  0 BBBBB.BBBBBBBB  .CCCCCCCC  00000-0  00000-0 0  DDDZ
 2 AAAAA EEE.EEEE FFF.FFFF GGGGGGG HHH.HHHH III.IIII JJ.JJJJJJJJKKKKKZ
 KEY: A-CATALOGNUM B-EPOCHTIME C-DECAY D-ELSETNUM E-INCLINATION F-RAAN
 G-ECCENTRICITY H-ARGPERIGEE I-MNANOM J-MNMOTION K-ORBITNUM Z-CHECKSUM

FO-29
1 24278U 96046B   01087.65505212  .00000023  00000-0  60277-4 0 04097
2 24278 098.5611 323.7625 0350564 210.3925 147.6475 13.52763373227755

 ■ 軌道要素2:「jamsat−keps:1089」より                     

        SB KEPS @ AMSAT  $ORB01088.O
        Orbital Elements  01088.OSCAR

HR AMSAT ORBITAL ELEMENTS FOR OSCAR SATELLITES
FROM WA5QGD FORT WORTH,TX March 29, 2001
SEND SUBSCRIBE/UNSUBSCRIBE TO majordomo@amsat.org ONLY
BID: ORB01088.O
TO ALL RADIO AMATEURS BT
 
Satellite: FO-29
Catalog number: 24278
Epoch time:      01087.65505212
Element set:    0409
Inclination:      098.5611 deg
RA of node:       323.7625 deg
Eccentricity:    0.0350564
Arg of perigee:   210.3925 deg
Mean anomaly:     147.6475 deg
Mean motion:   13.52763373 rev/day
Decay rate:        2.3e-07 rev/day^2
Epoch rev:           22775
Checksum:              305

-------------------  FO-29(JAS-2)のテレメトリに関する情報  ---------------------- 
 
2)上記テレメトリー3月28日(水)のテレメトリ最終行を分析しておきます.

AS22795C1   30MAR2001
10:34-10:47(JAS)
Freq.435.801-.789MHz

HI HI AE C7 88 55 0G D4 4F A7 09 42 5A 80 82 60 92 91 B0 6C AB A7 B2 B2 AE   

テレメトリ   内 容       換算算値 単 位  
3C	磁気センサーZ軸=	44117.6	[nT]
3D	磁気センサX軸	=	62745.1	[nT]
4A	太陽電池発生電流=	 1274.5	[mA]
4B	B充放電電流	=	 -118.4	[mA]
4C	B端子電圧	=	   15.7	[V]
4D	B中間端子電圧	=	    7.0	[V]
5A	バス電圧	=	   17.3	[V]
5B	JTA送信電力	=	  603.9	[mW]
5C 	構体温度1	=	   15.5	[℃]
5D	構体温度2	=	   17.0	[℃]
6A	構体温度3	=	   12.8	[℃]
6B	構体温度4	=	   12.8	[℃]
6C	Bセル温度	=	   14.3	[℃]
   	
 ===========================  FO-29(ふじ3号)のQSO情報等 ======================
   
 3)[jamsat-bb:

 ===============================================================================
   4)JARL のホームページに運用予定が記載されていましたのでご紹介します.
       ( http://www.jarl.or.jp/Japanese/3_Fuji/new/uy.htm )

        ■ ふじ3号/FOー29/JAS-2 ■  
   
     *** 運用予定について ***

     2月1日 〜 4月2日 アナログ系運用

  *なお,運用予定は都合により変更することがありますので予めご了承願います。

 照会先 : lab@jarl.or.jp

 最新の情報はテレホンサービス(03−3942−1000)をお聞きください。  
 以後の運用につきましては平成13年4月上旬にお知らせ致します。    
    
-----------------------    FO−20(JAS-1b)道要素   -------------------------
  5)
  ■ 軌道要素1 :出典はFO-29「ふじ3号」に同じ.
  
FO-20
1 20480U 90013C   01087.79241034  .00000011  00000-0  90387-4 0  3002
2 20480  99.0660 171.2265 0540504 131.1184 233.7894 12.83289937521788
 
  ■ 軌道要素2 :出典はFO−29「ふじ3号」に同じ.
               
Satellite: FO-20
Catalog number: 20480
Epoch time:      01087.79241034
Element set:     300
Inclination:       99.0660 deg
RA of node:       171.2265 deg
Eccentricity:    0.0540504
Arg of perigee:   131.1184 deg
Mean anomaly:     233.7894 deg
Mean motion:   12.83289937 rev/day
Decay rate:        1.1e-07 rev/day^2
Epoch rev:           52178
Checksum:              280
 
 --------------------------------------------------------------------------------
 
         ■ ふじ2号/FO−20/JAS-1b ■      
            
          「ふじ2号」 現況                                                                                  
             
   JAS-1b(ふじ2号)のCWテレメトリ信号に,1997年10月12日12時(JST)の
 日本上空通過時,3桁の数字が繰り返されるはずが3個の長音の繰り返しとなっているという
 異常が発見されました。この不具合は次の通過時からは回復していましたが13日15時20分の
 通過時に再び観測されました。現在はA0の送信が続いています。衛星のアナログ系中継モード
 動作は異常が無く,正常時のテレメトリ内容からは衛星の動作に異常は認められません。従って,
 直ちに衛星のミッションに影響することは無いと予想されますので,当面はアナログ系中継
 モードを継続します。衛星は既に打ち上げてから7年8ヶ月を経ておりますので,今後は監視を
 強化する予定です。アマチュア各位のレポートをお待ちします。
 -------------------------------------------------------------------------------- 
  1997年10月14日 00時35分 確認のテレメトリ音 151 KB (A0) 
  1997年10月14日 11時10分 確認のテレメトリ音 216 KB (異常キーイング) 

  以上 JARLのホ−ムページの http://www.jarl.or.jp/Japanese/3_Fuji/new/fuji.htm

===================== FO-20 ふじ2号 のテレメトリ観測結果 ====================

   12月22日(金)の12:21(JST)のパスの観測結果では以前観測した
 単一周波数のドップラー効果で周波数がずれていくのみの状態に戻っておりました。
                                         
   =============   JAS-2 (ふじ3号)と現在までの情報   ===========
  
  A.電話によるふじ3号の運用情報
      社団法人日本アマチュア連盟によるサービス
           TEL .   03− 3942 − 1000
  B.アマチュア無線FAXサービス
      JARLによるふじ3号の軌道情報(オービットカレンダー)
         FAX No.  03− 3233 −0055
  C.WWWブラウザで情報を簡単に見れる人のためにJAS−2
     ふじ3号の衛星としての運用されるまでの名前)の概要、打ち上げ
     までの状況、運用中における状況を説明したホームページを紹介し
     ておきます.
     社団法人日本アマチュア無線連盟(JARL)のホームページ

          http://www.jarl.or.jp/Japanese/3_Fuji/jasmenu.htm
 
     宇宙開発事業団(NASDA)ホームページ 
          http://www.nasda.go.jp/
         打上げ衛星 :地球観測プラットフォーム技術衛星(ADEOS) 
                       アマチュア衛星3号(JAS-2)
          http://yyy.tksc.nasda.go.jp/Home/Press/Press-j/jas-2_j.html        

  D.JAMSATによる軌道情報の活用
        JAMSATのホームページまたはjamsat−kepsの軌道要素より
      衛星の軌道情報を得る.
     JAMSATホームページ
               URL    http://www.jamsat.or.jp
       上記ホームページでは各地で行われるアマチュア通信衛星に関する
      ミューティングのお知らせや世界のアマチュア衛星に関する情報が
      満載されています.
 ========================================================================  
     JAMSATのメンバーのご協力によりJH6MME(高山 秀造)が
    執筆・編集を担当しております.ご指摘の意見、疑問やこのようにしたら
    というアイデアがありましたら小さなことでもかまいませんので気軽に下
    記アドレスまでご連絡ください.jamsat−newsからjas2
    infoへの転載をJH4PHW局坂井さんに担当して頂いております.  
                  E-mail : jh6mme@jamsat.or.jp : jh4phw@jamsat.or.jp
 ===============================   END  ===============================